User: anonymous   Login
Location: Lesignano de� Bagni
(44.6500°N, 10.3000°E)
Time: 15:27:32
(UTC+00:00)
Language:

GP-B - Orbit

View from above orbital plane
View from above orbital plane
View from above satellite
View from above satellite

Ground track
Ground track

The orbit data is extracted from the following two-line orbital elements,

1 28230U 04014A   21138.38756762  .00000141  00000-0  16969-4 0  9994
2 28230  89.8140  90.8941 0003384  89.7389 270.4222 14.78808274920582
Epoch (UTC): 18 May 2021 09:18:05
Eccentricity: 0.0003384
inclination: 89.8140°
perigee height: 631 km
apogee height: 635 km
right ascension of ascending node: 90.8941°
argument of perigee: 89.7389°
revolutions per day: 14.78808274
mean anomaly at epoch: 270.4222°
orbit number at epoch: 92058

The dashed part of the orbit path shows where the satellite is in the earth's shadow,  

DLR